GW4386 Weather Reports


Display with metric or nautical units.
time (UTC)temp
F
wind
direction
speed
MPH
gust
MPH
rain 1hr
in
rain 24hr
in
rain mn
in
humidity
%
barometer
mb
20260502212006 51 135 0.0 0.0 0.00 0.00 0.00 70 1019.2
20260502211505 51 144 0.0 0.0 0.00 0.00 0.00 70 1019.2
20260502211002 51 216 0.0 0.0 0.00 0.00 0.00 70 1019.2
20260502210502 51 131 0.0 0.0 0.00 0.00 0.00 69 1019.2
20260502210001 52 101 0.0 1.0 0.00 0.00 0.00 69 1019.3
20260502205600 52 135 0.0 1.0 0.00 0.00 0.00 69 1019.3
20260502205102 52 147 0.0 1.0 0.00 0.00 0.00 69 1019.3
20260502205001 52 147 0.0 1.0 0.00 0.00 0.00 69 1019.3
20260502204600 52 128 0.0 1.0 0.00 0.00 0.00 68 1019.3
20260502204502 52 128 0.0 1.0 0.00 0.00 0.00 68 1019.3
20260502204102 53 119 0.0 1.0 0.00 0.00 0.00 67 1019.3
20260502204002 53 220 0.0 1.0 0.00 0.00 0.00 67 1019.3
20260502203600 53 165 0.0 1.0 0.00 0.00 0.00 66 1019.3
20260502203502 53 191 0.0 1.0 0.00 0.00 0.00 66 1019.3
20260502203102 53 144 0.0 0.0 0.00 0.00 0.00 65 1019.3
20260502202600 54 129 0.0 0.0 0.00 0.00 0.00 65 1019.3
20260502202100 54 126 0.0 0.0 0.00 0.00 0.00 64 1019.4
20260502202003 54 145 0.0 0.0 0.00 0.00 0.00 64 1019.4
20260502201601 54 150 0.0 0.0 0.00 0.00 0.00 63 1019.4
20260502201101 55 138 0.0 0.0 0.00 0.00 0.00 63 1019.4
20260502200600 55 221 0.0 0.0 0.00 0.00 0.00 62 1019.4
20260502200100 55 244 0.0 0.0 0.00 0.00 0.00 62 1019.4
20260502195601 56 217 0.0 1.0 0.00 0.00 0.00 61 1019.4
20260502195059 56 121 0.0 1.0 0.00 0.00 0.00 60 1019.4
20260502194600 56 117 0.0 1.0 0.00 0.00 0.00 59 1019.4
20260502194501 56 117 0.0 1.0 0.00 0.00 0.00 59 1019.5
20260502194002 57 117 0.0 1.0 0.00 0.00 0.00 58 1019.4
20260502193600 57 121 0.0 0.0 0.00 0.00 0.00 57 1019.4
20260502193108 57 212 0.0 0.0 0.00 0.00 0.00 57 1019.5
20260502192600 58 135 0.0 0.0 0.00 0.00 0.00 56 1019.5
20260502192001 59 171 0.0 0.0 0.00 0.00 0.00 56 1019.5
20260502191602 59 123 0.0 0.0 0.00 0.00 0.00 54 1019.5
20260502191059 59 183 0.0 0.0 0.00 0.00 0.00 53 1019.5
20260502190600 60 163 0.0 0.0 0.00 0.00 0.00 53 1019.5
20260502190111 61 136 0.0 0.0 0.00 0.00 0.00 52 1019.5
20260502190002 61 136 0.0 0.0 0.00 0.00 0.00 51 1019.5
20260502185500 61 221 0.0 0.0 0.00 0.00 0.00 50 1019.5
20260502185001 62 221 0.0 0.0 0.00 0.00 0.00 50 1019.5
20260502184503 62 221 0.0 0.0 0.00 0.00 0.00 49 1019.4
20260502184001 63 221 0.0 1.0 0.00 0.00 0.00 49 1019.4
20260502183503 64 303 0.0 1.0 0.00 0.00 0.00 45 1019.5
20260502183005 64 211 0.0 0.0 0.00 0.00 0.00 45 1019.4
20260502182501 65 209 0.0 1.0 0.00 0.00 0.00 44 1019.4
20260502182100 66 209 0.0 1.0 0.00 0.00 0.00 43 1019.4
20260502181502 67 221 0.0 3.0 0.00 0.00 0.00 42 1019.4
20260502181001 67 193 0.0 3.0 0.00 0.00 0.00 41 1019.3
20260502180502 68 244 0.0 3.0 0.00 0.00 0.00 40 1019.3
20260502164101 77 191 5.0 11.0 0.00 0.00 0.00 27 1019.6
20260502163600 77 220 4.0 10.0 0.00 0.00 0.00 28 1019.7
20260502163105 78 198 3.0 11.0 0.00 0.00 0.00 28 1019.6
20260502162600 78 198 5.0 8.0 0.00 0.00 0.00 27 1019.7
20260502162502 78 211 3.0 8.0 0.00 0.00 0.00 27 1019.7
20260502162100 78 224 1.0 7.0 0.00 0.00 0.00 27 1019.7
20260502161624 78 180 4.0 12.0 0.00 0.00 0.00 27 1019.8
20260502161501 78 196 3.0 12.0 0.00 0.00 0.00 28 1019.8
20260502161000 78 212 7.0 11.0 0.00 0.00 0.00 27 1020.0
20260502160600 78 168 4.0 10.0 0.00 0.00 0.00 27 1019.9
20260502152102 79 210 6.0 12.0 0.00 0.00 0.00 26 1020.6
20260502151611 79 175 6.0 12.0 0.00 0.00 0.00 26 1020.6
20260502151059 80 244 3.0 11.0 0.00 0.00 0.00 25 1020.7
20260502150600 80 194 4.0 11.0 0.00 0.00 0.00 25 1020.7
20260502130559 79 197 3.0 15.0 0.00 0.00 0.00 25 1022.1
20260502130107 80 166 4.0 13.0 0.00 0.00 0.00 24 1022.1
20260502123601 80 223 4.0 10.0 0.00 0.00 0.00 24 1022.5
20260502123101 79 163 4.0 10.0 0.00 0.00 0.00 25 1022.6
20260502122501 79 258 3.0 15.0 0.00 0.00 0.00 23 1022.8
20260502122002 78 182 5.0 17.0 0.00 0.00 0.00 22 1022.8
20260502121601 79 205 9.0 17.0 0.00 0.00 0.00 22 1022.9
20260502121100 79 259 10.0 18.0 0.00 0.00 0.00 23 1023.0
20260502120501 80 226 5.0 10.0 0.00 0.00 0.00 23 1023.0
20260502115559 79 207 7.0 19.0 0.00 0.00 0.00 23 1023.1
20260502115104 79 149 5.0 12.0 0.00 0.00 0.00 23 1023.1
20260502114501 79 198 1.0 9.0 0.00 0.00 0.00 26 1023.2
20260502114102 79 255 2.0 11.0 0.00 0.00 0.00 26 1023.2
20260502113501 77 290 4.0 12.0 0.00 0.00 0.00 25 1023.3
20260502113101 78 293 7.0 12.0 0.00 0.00 0.00 25 1023.4
20260502112601 79 142 1.0 10.0 0.00 0.00 0.00 25 1023.5
20260502112103 80 100 2.0 7.0 0.00 0.00 0.00 25 1023.5
20260502111606 78 121 3.0 10.0 0.00 0.00 0.00 25 1023.5
20260502111100 78 200 6.0 10.0 0.00 0.00 0.00 26 1023.7
20260502110600 78 313 2.0 10.0 0.00 0.00 0.00 25 1023.7
20260502110502 78 186 3.0 10.0 0.00 0.00 0.00 25 1023.7
20260502110100 78 159 4.0 10.0 0.00 0.00 0.00 25 1023.8
20260502105600 77 267 1.0 7.0 0.00 0.00 0.00 26 1023.8
20260502105101 77 292 1.0 11.0 0.00 0.00 0.00 26 1023.9
20260502104600 77 223 4.0 11.0 0.00 0.00 0.00 26 1024.0
20260502104100 76 176 0.0 8.0 0.00 0.00 0.00 26 1024.0
20260502103602 75 221 3.0 10.0 0.00 0.00 0.00 25 1024.1
20260502103501 76 253 2.0 10.0 0.00 0.00 0.00 25 1024.1
20260502103101 75 203 3.0 10.0 0.00 0.00 0.00 27 1024.1
20260502102602 75 241 6.0 11.0 0.00 0.00 0.00 26 1024.2
20260502102505 75 233 4.0 11.0 0.00 0.00 0.00 25 1024.2
20260502102059 75 161 4.0 11.0 0.00 0.00 0.00 25 1024.2
20260502102002 75 196 5.0 11.0 0.00 0.00 0.00 24 1024.2
20260502101600 76 196 5.0 11.0 0.00 0.00 0.00 25 1024.3
20260502101101 75 62 3.0 9.0 0.00 0.00 0.00 26 1024.4
20260502100601 76 227 3.0 10.0 0.00 0.00 0.00 25 1024.5
20260502091501 72 319 4.0 9.0 0.00 0.00 0.00 30 1025.1
20260502091059 72 263 5.0 9.0 0.00 0.00 0.00 29 1025.1
20260502090600 72 67 0.0 11.0 0.00 0.00 0.00 29 1025.1
20260502090115 72 219 6.0 11.0 0.00 0.00 0.00 29 1025.2
20260502071104 65 133 0.0 4.0 0.00 0.00 0.00 43 1025.8
20260502070600 64 121 1.0 4.0 0.00 0.00 0.00 44 1025.7
20260502070121 64 123 0.0 3.0 0.00 0.00 0.00 45 1025.7
20260502070002 64 98 0.0 3.0 0.00 0.00 0.00 45 1025.8
20260502065601 62 129 0.0 3.0 0.00 0.00 0.00 49 1025.8
20260502065059 62 123 2.0 4.0 0.00 0.00 0.00 48 1025.8
20260502064600 61 82 1.0 4.0 0.00 0.00 0.00 51 1025.9
20260502064105 61 152 1.0 4.0 0.00 0.00 0.00 53 1025.9
20260502063559 60 153 1.0 5.0 0.00 0.00 0.00 54 1025.9
20260502063100 59 140 1.0 3.0 0.00 0.00 0.00 55 1026.0
20260502062600 58 106 1.0 3.0 0.00 0.00 0.00 58 1026.0
20260502062100 58 126 1.0 3.0 0.00 0.00 0.00 60 1026.0
20260502062003 58 116 0.0 3.0 0.00 0.00 0.00 61 1026.0
20260502061600 57 123 1.0 3.0 0.00 0.00 0.00 62 1026.0
20260502061100 56 138 0.0 3.0 0.00 0.00 0.00 65 1026.0
20260502060604 55 43 0.0 2.0 0.00 0.00 0.00 66 1026.0
20260502060500 55 131 0.0 2.0 0.00 0.00 0.00 66 1026.0
20260502060059 55 112 0.0 2.0 0.00 0.00 0.00 67 1026.0
20260502060002 54 124 0.0 2.0 0.00 0.00 0.00 67 1026.0
20260502055601 54 88 0.0 2.0 0.00 0.00 0.00 68 1026.0
20260502055100 53 123 0.0 2.0 0.00 0.00 0.00 68 1026.0
20260502054600 52 155 0.0 1.0 0.00 0.00 0.00 70 1026.0
20260502054059 51 87 0.0 2.0 0.00 0.00 0.00 72 1026.0
20260502053603 51 126 0.0 2.0 0.00 0.00 0.00 74 1026.0
20260502053132 50 106 0.0 2.0 0.00 0.00 0.00 76 1026.0
20260502053002 50 62 0.0 2.0 0.00 0.00 0.00 75 1026.0
20260502052600 49 128 0.0 1.0 0.00 0.00 0.00 76 1025.9
20260502052103 48 130 0.0 1.0 0.00 0.00 0.00 78 1025.9
20260502052001 48 86 0.0 1.0 0.00 0.00 0.00 79 1025.9
20260502051618 48 126 0.0 1.0 0.00 0.00 0.00 80 1025.9
20260502051503 48 136 0.0 1.0 0.00 0.00 0.00 80 1026.0
20260502051102 47 85 0.0 1.0 0.00 0.00 0.00 81 1026.0
20260502050605 46 103 0.0 1.0 0.00 0.00 0.00 83 1026.0
20260502050100 45 131 0.0 1.0 0.00 0.00 0.00 84 1025.9
20260502050002 45 115 0.0 1.0 0.00 0.00 0.00 84 1026.0
20260502045602 45 117 0.0 1.0 0.00 0.00 0.00 85 1026.0
20260502045104 44 138 0.0 1.0 0.00 0.00 0.00 85 1026.0
20260502044605 43 146 0.0 1.0 0.00 0.00 0.00 84 1026.0
20260502044100 43 126 0.0 1.0 0.00 0.00 0.00 85 1026.0
20260502043559 42 98 0.0 1.0 0.00 0.00 0.00 86 1026.0
20260502043502 42 62 0.0 0.0 0.00 0.00 0.00 86 1026.0
20260502043113 41 115 0.0 0.0 0.00 0.00 0.00 87 1026.0
20260502042601 41 109 0.0 0.0 0.00 0.00 0.00 87 1026.0
20260502042000 40 76 0.0 1.0 0.00 0.00 0.00 87 1026.0
20260502041634 40 65 0.0 1.0 0.00 0.00 0.00 87 1026.0
20260502041059 39 132 0.0 0.0 0.00 0.00 0.00 88 1026.1
20260502040559 39 132 0.0 0.0 0.00 0.00 0.00 88 1026.0
20260502040100 38 52 0.0 0.0 0.00 0.00 0.00 88 1026.0
20260502035559 38 74 0.0 0.0 0.00 0.00 0.00 88 1026.0
20260502035059 38 227 0.0 0.0 0.00 0.00 0.00 88 1026.0
20260502034559 38 227 0.0 0.0 0.00 0.00 0.00 88 1026.0
20260502034059 38 227 0.0 0.0 0.00 0.00 0.00 88 1026.0
20260502033601 37 55 0.0 0.0 0.00 0.00 0.00 88 1026.1
20260502033108 37 55 0.0 0.0 0.00 0.00 0.00 88 1026.0
20260502032558 37 140 0.0 0.0 0.00 0.00 0.00 87 1026.1
20260502032100 37 140 0.0 0.0 0.00 0.00 0.00 87 1026.2
20260502031559 37 140 0.0 0.0 0.00 0.00 0.00 87 1026.2
20260502031059 37 325 0.0 0.0 0.00 0.00 0.00 87 1026.2
20260502030558 38 325 0.0 0.0 0.00 0.00 0.00 87 1026.2
20260502030059 38 325 0.0 1.0 0.00 0.00 0.00 87 1026.2
20260502025600 38 317 0.0 1.0 0.00 0.00 0.00 87 1026.2
20260502025059 38 63 0.0 0.0 0.00 0.00 0.00 87 1026.2
20260502024600 38 63 0.0 0.0 0.00 0.00 0.00 87 1026.2
20260502024100 38 115 0.0 0.0 0.00 0.00 0.00 87 1026.2
20260502024001 38 115 0.0 0.0 0.00 0.00 0.00 86 1026.3
20260502023600 38 115 0.0 0.0 0.00 0.00 0.00 86 1026.2
20260502023100 38 115 0.0 0.0 0.00 0.00 0.00 86 1026.3
20260502023001 38 115 0.0 0.0 0.00 0.00 0.00 86 1026.3
20260502022600 38 115 0.0 0.0 0.00 0.00 0.00 86 1026.3
20260502022100 39 115 0.0 0.0 0.00 0.00 0.00 86 1026.4
20260502021601 39 338 0.0 0.0 0.00 0.00 0.00 86 1026.3
20260502021101 39 338 0.0 0.0 0.00 0.00 0.00 86 1026.3
20260502020602 39 130 0.0 0.0 0.00 0.00 0.00 86 1026.4
20260502020002 39 132 0.0 0.0 0.00 0.00 0.00 86 1026.3
20260502015600 39 57 0.0 0.0 0.00 0.00 0.00 86 1026.3
20260502015002 39 109 0.0 0.0 0.00 0.00 0.00 85 1026.3
20260502014600 39 148 0.0 0.0 0.00 0.00 0.00 85 1026.3
20260502014100 40 151 0.0 0.0 0.00 0.00 0.00 85 1026.4
20260502013559 40 71 0.0 0.0 0.00 0.00 0.00 85 1026.3
20260502013104 40 80 0.0 0.0 0.00 0.00 0.00 85 1026.4
20260502012601 40 80 0.0 0.0 0.00 0.00 0.00 85 1026.4
20260502012100 41 80 0.0 0.0 0.00 0.00 0.00 85 1026.4
20260502011608 41 68 0.0 0.0 0.00 0.00 0.00 85 1026.4
20260502011501 41 137 0.0 0.0 0.00 0.00 0.00 85 1026.3
20260502011059 41 137 0.0 1.0 0.00 0.00 0.00 85 1026.3
20260502010600 41 123 0.0 1.0 0.00 0.00 0.00 84 1026.4
20260502010105 41 172 0.0 0.0 0.00 0.00 0.00 84 1026.4
20260502005600 41 115 0.0 0.0 0.00 0.00 0.00 84 1026.4
20260502005059 42 130 0.0 0.0 0.00 0.00 0.00 84 1026.4
20260502004601 42 26 0.0 0.0 0.00 0.00 0.00 84 1026.4
20260502004501 42 80 0.0 0.0 0.00 0.00 0.00 84 1026.5
20260502004059 42 80 0.0 0.0 0.00 0.00 0.00 84 1026.5
20260502003601 42 148 0.0 0.0 0.00 0.00 0.00 84 1026.6
20260502003059 42 52 0.0 0.0 0.00 0.00 0.00 84 1026.6
20260502002559 42 52 0.0 0.0 0.00 0.00 0.00 84 1026.6
20260502002059 42 72 0.0 1.0 0.00 0.00 0.00 83 1026.5
20260502001604 43 69 0.0 1.0 0.00 0.00 0.00 83 1026.5
20260502001058 43 98 0.0 0.0 0.00 0.00 0.00 83 1026.6
20260502000059 43 313 0.0 0.0 0.00 0.00 0.00 83 1026.6
20260502000002 43 313 0.0 0.0 0.00 0.00 0.00 83 1026.7
20260501235601 43 75 0.0 0.0 0.00 0.00 0.00 82 1026.7
20260501235502 43 75 0.0 0.0 0.00 0.00 0.00 82 1026.7
20260501235059 44 75 0.0 0.0 0.00 0.00 0.00 82 1026.6
20260501234559 44 80 0.0 0.0 0.00 0.00 0.00 83 1026.7
20260501234101 44 22 0.0 0.0 0.00 0.00 0.00 82 1026.6
20260501233600 44 57 0.0 1.0 0.00 0.00 0.00 82 1026.6
20260501233110 44 43 0.0 1.0 0.00 0.00 0.00 82 1026.7
20260501232600 44 75 0.0 0.0 0.00 0.00 0.00 81 1026.7
20260501232059 45 97 0.0 1.0 0.00 0.00 0.00 81 1026.8
20260501231629 45 133 0.0 1.0 0.00 0.00 0.00 82 1026.8
20260501231100 45 349 0.0 0.0 0.00 0.00 0.00 82 1026.8
20260501230600 45 180 0.0 0.0 0.00 0.00 0.00 81 1026.7
20260501230003 45 180 0.0 1.0 0.00 0.00 0.00 80 1026.7
20260501225501 45 184 0.0 1.0 0.00 0.00 0.00 79 1026.7
20260501225002 46 165 0.0 1.0 0.00 0.00 0.00 78 1026.7
20260501224502 46 123 0.0 1.0 0.00 0.00 0.00 78 1026.6
20260501224002 47 74 0.0 1.0 0.00 0.00 0.00 78 1026.7
20260501223502 47 90 0.0 3.0 0.00 0.00 0.00 77 1026.7
20260501223001 47 70 0.0 2.0 0.00 0.00 0.00 77 1026.7
20260501222505 47 128 0.0 0.0 0.00 0.00 0.00 77 1026.7
20260501222002 47 78 0.0 3.0 0.00 0.00 0.00 76 1026.8
20260501221502 48 57 2.0 3.0 0.00 0.00 0.00 76 1026.7
20260501221002 48 68 0.0 2.0 0.00 0.00 0.00 76 1026.7
20260501220502 49 296 0.0 1.0 0.00 0.00 0.00 75 1026.7
20260501220005 49 61 0.0 1.0 0.00 0.00 0.00 75 1026.7
20260501215601 48 43 0.0 1.0 0.00 0.00 0.00 75 1026.7
20260501215000 49 309 0.0 1.0 0.00 0.00 0.00 74 1026.7
20260501214502 49 61 0.0 0.0 0.00 0.00 0.00 74 1026.7
20260501214003 49 61 0.0 0.0 0.00 0.00 0.00 74 1026.7
20260501213600 49 34 0.0 0.0 0.00 0.00 0.00 74 1026.7
20260501213501 49 34 0.0 0.0 0.00 0.00 0.00 74 1026.7
20260501213103 49 34 0.0 0.0 0.00 0.00 0.00 74 1026.7
20260501212600 49 73 0.0 1.0 0.00 0.00 0.00 74 1026.7
20260501212501 49 42 0.0 1.0 0.00 0.00 0.00 74 1026.7
20260501212105 49 18 0.0 1.0 0.00 0.00 0.00 74 1026.7